Regional Weather Roundup
Issued by NWS

Home | Current Version | Previous Version | Graphics & Text | Print | Product List | Glossary On
Versions: 1 2 3 4 5 6 7 8 9 10 11 12 13 14 15 16 17 18 19 20 21 22 23 24 25 26 27 28 29 30 31 32 33 34 35 36 37 38 39 40 41 42 43 44 45 46 47 48 49 50
000
ASUS43 KTOP 220059
RWRKS

WEATHER ROUNDUP FOR KANSAS
NATIONAL WEATHER SERVICE GOODLAND KS
800 PM CDT MON JUL 21 2014

NOTE:  "FAIR" INDICATES FEW OR NO CLOUDS BELOW 12,000 FEET WITH NO
SIGNIFICANT WEATHER AND/OR OBSTRUCTIONS TO VISIBILITY.

KSZ001>006-013>018-027>032-041>047-220200-
NORTHWEST KANSAS

CITY           SKY/WX    TMP DP  RH WIND       PRES   REMARKS
GOODLAND       PTSUNNY   86  60  41 S14       30.03R
HAYS           CLOUDY    88  66  48 S13       29.93F
HILL CITY      CLOUDY    90  67  46 S7        29.94R
RUSSELL        CLOUDY    90  72  55 S13       29.92R HX  97
$$

KSZ061>065-074>080-084>089-220200-
SOUTHWEST KANSAS

CITY           SKY/WX    TMP DP  RH WIND       PRES   REMARKS
DODGE CITY     CLOUDY    87  60  40 SE13      29.96F
ELKHART          N/A     83  65  54 W18         N/A
GARDEN CITY    HAZE      78  61  55 NW26G39   29.99R VSB 1
GREAT BEND     MOCLDY    88  72  58 S10       29.94R
LIBERAL        CLOUDY    86  63  45 SW16      30.01R
$$

KSZ066>073-081>083-090>101-220200-
SOUTHEAST KANSAS

CITY           SKY/WX    TMP DP  RH WIND       PRES   REMARKS
CHANUTE        CLEAR     86  74  67 S9        29.97S
COFFEYVILLE    CLEAR     87  74  64 S12       29.97S HX  95
HUTCHINSON     CLEAR     92  68  45 S13       29.96R HX  96
MEDICINE LODGE   N/A     91  66  43 S9        29.95R
NEWTON         CLEAR     90  68  48 S10       30.01R
PARSONS        CLEAR     86  73  65 S9        29.98F
WICHITA INTL   PTCLDY    89  72  56 S14       29.96R HX  96
WICHITA JABRA  CLEAR     88  74  63 S9        29.97R HX  96
WINFIELD       CLEAR     87  76  69 S12       29.98R HX  97
$$

KSZ007>012-019>026-033>040-048>060-102>105-220200-
NORTHEAST KANSAS

CITY           SKY/WX    TMP DP  RH WIND       PRES   REMARKS
CONCORDIA      CLEAR     93  68  43 S12       29.90R HX  97
EMPORIA        CLEAR     87  73  62 S12G21    29.95S
LAWRENCE       CLEAR     88  74  63 S6        29.93S HX  96
MANHATTAN      CLEAR     95  72  47 S14G23    29.90R HX 103
OLATHE IND     CLEAR     87  73  62 S12       29.97R
OLATHE EXE     CLEAR     86  75  69 S8        29.96R HX  95
SALINA         CLEAR     96  68  39 S13       29.92R HX 101
TOPEKA BILLARD PTCLDY    92  74  55 S13       29.92S HX 101
TOPEKA FORBES  PTCLDY    91  73  55 S12       29.93S HX  99
$$



USA.gov is the U.S. government's official web portal to all federal, state and local government web resources and services.